Tracking 19854 objects as of 23-Sep-2019
HD Live streaming from Space Station
objects crossing your sky now

CZ-2C DEB

Track CZ-2C DEB now!
10-day predictions


NORAD ID: 29519
Int'l Code: 2004-029D
Perigee: 331.6 km
Apogee: 7,890.7 km
Inclination: 88.0 °
Period: 178.0 minutes
Semi major axis: 10482 km
RCS: 0.037 m2 (small)
Launch date: July 25, 2004
Source: People's Republic of China (PRC)
Launch site: Taiyaun Space Center, China (TSC)

Note: This is SATELLITE DEBRIS
aabbcc
Your satellite tracking list
Your tracking list is empty




NASA's NSSDC Master Catalog

Two Line Element Set (TLE):
1 29519U 04029D   19266.17768667  .00017785  00000-0  21438-2 0  9991
2 29519  88.0291 164.7384 3605733 121.3556  13.9761  8.08963227237429
Source of the keplerian elements: AFSPC